Location: Wooded Hills
(32.5240°N, 97.2692°W)
Time: 22:01:24
(UTC+00:00)

Envisat - Visible Passes

Search period start: 30 September 2022 00:00
Search period end: 10 October 2022 00:00
Orbit: 763 x 765 km, 98.2° (Epoch: 30 September)

Date Brightness Start Highest point End Pass type
(mag) Time Alt. Az. Time Alt. Az. Time Alt. Az.
30 Sep 2.9 10:56:07 10° N 11:01:11 73° WNW 11:06:13 10° SSW visible
01 Oct 4.0 10:19:21 10° NNE 10:24:14 45° E 10:29:04 10° S visible
02 Oct 5.4 09:43:35 10° NE 09:47:06 19° E 09:50:35 10° SE visible
02 Oct 3.4 11:21:29 10° N 11:26:10 39° WNW 11:30:51 10° SW visible
03 Oct 3.0 10:44:15 10° NNE 10:49:20 85° ESE 10:54:25 10° SSW visible
04 Oct 4.5 10:07:43 10° NNE 10:12:20 34° E 10:16:54 10° SSE visible
04 Oct 4.2 11:47:14 10° NNW 11:51:04 22° WNW 11:54:53 10° WSW visible
05 Oct 5.8 09:32:34 10° ENE 09:35:09 14° E 09:37:43 10° SE visible
05 Oct 3.1 11:09:27 10° N 11:14:22 52° WNW 11:19:16 10° SSW visible
06 Oct 3.3 10:32:26 10° NNE 10:37:29 65° E 10:42:29 10° S visible
07 Oct 5.0 09:56:12 10° NE 10:00:25 26° E 10:04:37 10° SSE visible
07 Oct 3.8 11:35:01 10° NNW 11:39:18 28° WNW 11:43:36 10° SW visible
08 Oct 2.9 10:57:30 10° N 11:02:33 69° WNW 11:07:34 10° SSW visible
09 Oct 3.9 10:20:42 10° NNE 10:25:36 48° E 10:30:29 10° S visible
09 Oct 4.5 12:01:09 10° NNW 12:04:09 16° WNW 12:07:10 10° WSW visible
